Location: Newark
(33.6439°N, 114.9881°W)
Time: 02:48:46
(UTC+00:00)

A-11 Canister half - Pass Details

Date: 27 August 2019
Orbit: 1527 x 1682 km, 47.3° (Epoch: 15 September)

Event Time Altitude Azimuth Distance (km) Brightness Sun altitude
Rises 20:50:47 0° 286° (WNW) 4,870 11.8 61.4°
Reaches altitude 10° 20:54:18 10° 294° (WNW) 3,902 11.4 61.0°
Maximum altitude 21:03:24 37° 360° (N) 2,402 10.3 59.7°
Drops below altitude 10° 21:12:37 10° 65° (ENE) 3,945 11.0 58.4°
Sets 21:16:11 0° 73° (ENE) 4,929 11.4 57.8°
